FREGAT DEB, 45840

Orbit data source: Space-Track

FREGAT DEB, 45840 is space debris in LEO originally from a launch on Mon, 18 Jul 2011 UTC launched from the Tyuratam Missile And Space Complex (TTMTR). Debris objects in space refer to the collection of defunct objects orbiting the Earth. Examples of debris include non-operational satellites, rocket bodies, and fragments generated from explosions, collisions, or faulty payload assembly.

Loading next visibility...
Identifier
45840, 2011-037CA
Orbit
LEO
Country
Flag of CISCIS
Related business
Manufacturer
Lavochkin
Mission
Spacecraft
Bus & Motor
Unknown
Mass
Unknown
Launch date (UTC)
2011-07-18 (15 years ago)
Launch vehicle
Unknown
Launch site
Tyuratam Missile And Space Complex (TTMTR)
Object type
Payload
Rocket body
Debris
Shape & HBR
Unknown shape, 0.1 m
Radar Cross Section
Small (<0.1 m²)

Expand to show TLE details & history
Last TLE update: 21 hours ago

TLE from 21 hours ago
0 FREGAT DEB
1 45840U 11037CA  26121.38564823  .00008924  00000-0  29852-2 0  9995
2 45840  51.5461 118.9078 1881093 138.5675 237.4255 11.19955962231354
Epoch: 2026-05-01T09:15Z
TLE epoch observation values (Epoch: 2026-05-01T09:15:20.007Z)
Latitude
-0.00001°
Longitude
120.75578°
Altitude
3,097.118 km
Speed
6.077 km/s
True Right ascension
07h 55m 37s
True Declination
0° 00' 00"
Sunlit
Object was in daylight at epoch
Visualization orbit readout
Latitude
Unknown
Longitude
Unknown
Altitude
Unknown
Speed
Unknown
Apparent Right ascension
Unknown
Apparent Declination
Unknown
Sunlit
N/A
Visualization observer readout
Local Sidereal Time
13:32:23
Azimuth
Unknown
Elevation
Unknown
Doppler factor
Unknown
Orbital elements
Apogee altitude
3,648.314 km
Perigee altitude
473.407 km
Semi-major axis
8,438.997 km
Eccentricity
0.18811
Inclination
51.5461°
RAAN
118.9078°
Arg. of periapsis
138.5675°
True anomaly
221.51216°
Mean anomaly
237.4255°
Eccentric anomaly
229.25941°
Mean motion
2.79967 °/min
Orbital period
128.59 mins
BSTAR
0.0029852
Loading maneuver chart data...
Computing Atmospheric mass density...
Loading historical data...
Loading historical data...
Loading historical data...
Loading historical data...
Loading historical data...
Loading historical data...
Loading historical data...

Documentation

Showing up to 5 results
|